Year,Month,Day,Hour,Minute,Value (Times are PST for temperature in C)
2012,08,15,00,00,21.50
2012,08,15,00,01,21.50
2012,08,15,00,02,21.40
2012,08,15,00,03,21.40
2012,08,15,00,04,21.40
2012,08,15,00,05,21.40
2012,08,15,00,06,21.30
2012,08,15,00,07,21.30
2012,08,15,00,08,21.30
2012,08,15,00,09,21.30
2012,08,15,00,10,21.30
2012,08,15,00,11,21.20
2012,08,15,00,12,21.20
2012,08,15,00,13,21.20
2012,08,15,00,14,21.20
2012,08,15,00,15,21.20
2012,08,15,00,16,21.20
2012,08,15,00,17,21.10
2012,08,15,00,18,21.10
2012,08,15,00,19,21.10
2012,08,15,00,20,21.10
2012,08,15,00,21,21.10
2012,08,15,00,22,21.10
2012,08,15,00,23,21.00
2012,08,15,00,24,21.00
2012,08,15,00,25,21.00
2012,08,15,00,26,21.00
2012,08,15,00,27,20.90
2012,08,15,00,28,20.90
2012,08,15,00,29,20.90
2012,08,15,00,30,20.90
2012,08,15,00,31,20.80
2012,08,15,00,32,20.80
2012,08,15,00,33,20.80
2012,08,15,00,34,20.80
2012,08,15,00,35,20.80
2012,08,15,00,36,20.80
2012,08,15,00,37,20.70
2012,08,15,00,38,20.70
2012,08,15,00,39,20.70
2012,08,15,00,40,20.70
2012,08,15,00,41,20.70
2012,08,15,00,42,20.70
2012,08,15,00,43,20.70
2012,08,15,00,44,20.70
2012,08,15,00,45,20.70
2012,08,15,00,46,20.70
2012,08,15,00,47,20.70
2012,08,15,00,48,20.70
2012,08,15,00,49,20.60
2012,08,15,00,50,20.60
2012,08,15,00,51,20.60
2012,08,15,00,52,20.60
2012,08,15,00,53,20.60
2012,08,15,00,54,20.60
2012,08,15,00,55,20.60
2012,08,15,00,56,20.60
2012,08,15,00,57,20.60
2012,08,15,00,58,20.60
2012,08,15,00,59,20.60
2012,08,15,01,00,20.60
2012,08,15,01,01,20.60
2012,08,15,01,02,20.60
2012,08,15,01,03,20.60
2012,08,15,01,04,20.60
2012,08,15,01,05,20.50
2012,08,15,01,06,20.50
2012,08,15,01,07,20.50
2012,08,15,01,08,20.50
2012,08,15,01,09,20.50
2012,08,15,01,10,20.50
2012,08,15,01,11,20.50
2012,08,15,01,12,20.50
2012,08,15,01,13,20.50
2012,08,15,01,14,20.50
2012,08,15,01,15,20.50
2012,08,15,01,16,20.50
2012,08,15,01,17,20.50
2012,08,15,01,18,20.50
2012,08,15,01,19,20.50
2012,08,15,01,20,20.50
2012,08,15,01,21,20.40
2012,08,15,01,22,20.40
2012,08,15,01,23,20.40
2012,08,15,01,24,20.40
2012,08,15,01,25,20.40
2012,08,15,01,26,20.40
2012,08,15,01,27,20.40
2012,08,15,01,28,20.40
2012,08,15,01,29,20.40
2012,08,15,01,30,20.40
2012,08,15,01,31,20.30
2012,08,15,01,32,20.30
2012,08,15,01,33,20.30
2012,08,15,01,34,20.30
2012,08,15,01,35,20.30
2012,08,15,01,36,20.30
2012,08,15,01,37,20.30
2012,08,15,01,38,20.30
2012,08,15,01,39,20.20
2012,08,15,01,40,20.20
2012,08,15,01,41,20.20
2012,08,15,01,42,20.20
2012,08,15,01,43,20.20
2012,08,15,01,44,20.20
2012,08,15,01,45,20.20
2012,08,15,01,46,20.20
2012,08,15,01,47,20.20
2012,08,15,01,48,20.20
2012,08,15,01,49,20.20
2012,08,15,01,50,20.20
2012,08,15,01,51,20.20
2012,08,15,01,52,20.20
2012,08,15,01,53,20.10
2012,08,15,01,54,20.10
2012,08,15,01,55,20.10
2012,08,15,01,56,20.10
2012,08,15,01,57,20.10
2012,08,15,01,58,20.10
2012,08,15,01,59,20.10
2012,08,15,02,00,20.10
2012,08,15,02,01,20.10
2012,08,15,02,02,20.10
2012,08,15,02,03,20.10
2012,08,15,02,04,20.10
2012,08,15,02,05,20.10
2012,08,15,02,06,20.00
2012,08,15,02,07,20.00
2012,08,15,02,08,20.00
2012,08,15,02,09,20.00
2012,08,15,02,10,20.00
2012,08,15,02,11,19.90
2012,08,15,02,12,19.90
2012,08,15,02,13,19.90
2012,08,15,02,14,19.90
2012,08,15,02,15,19.90
2012,08,15,02,16,19.90
2012,08,15,02,17,19.90
2012,08,15,02,18,19.90
2012,08,15,02,19,19.90
2012,08,15,02,20,19.90
2012,08,15,02,21,19.90
2012,08,15,02,22,19.90
2012,08,15,02,23,19.90
2012,08,15,02,24,19.90
2012,08,15,02,25,19.80
2012,08,15,02,26,19.80
2012,08,15,02,27,19.80
2012,08,15,02,28,19.80
2012,08,15,02,29,19.80
2012,08,15,02,30,19.80
2012,08,15,02,31,19.80
2012,08,15,02,32,19.80
2012,08,15,02,33,19.80
2012,08,15,02,34,19.80
2012,08,15,02,35,19.80
2012,08,15,02,36,19.80
2012,08,15,02,37,19.70
2012,08,15,02,38,19.70
2012,08,15,02,39,19.70
2012,08,15,02,40,19.70
2012,08,15,02,41,19.70
2012,08,15,02,42,19.70
2012,08,15,02,43,19.70
2012,08,15,02,44,19.70
2012,08,15,02,45,19.70
2012,08,15,02,46,19.70
2012,08,15,02,47,19.70
2012,08,15,02,48,19.70
2012,08,15,02,49,19.70
2012,08,15,02,50,19.60
2012,08,15,02,51,19.60
2012,08,15,02,52,19.60
2012,08,15,02,53,19.60
2012,08,15,02,54,19.60
2012,08,15,02,55,19.60
2012,08,15,02,56,19.60
2012,08,15,02,57,19.60
2012,08,15,02,58,19.60
2012,08,15,02,59,19.60
2012,08,15,03,00,19.60
2012,08,15,03,01,19.60
2012,08,15,03,02,19.50
2012,08,15,03,06,19.50
2012,08,15,03,07,19.50
2012,08,15,03,08,19.50
2012,08,15,03,09,19.50
2012,08,15,03,10,19.50
2012,08,15,03,11,19.50
2012,08,15,03,12,19.40
2012,08,15,03,13,19.40
2012,08,15,03,14,19.40
2012,08,15,03,15,19.40
2012,08,15,03,16,19.40
2012,08,15,03,17,19.40
2012,08,15,03,18,19.40
2012,08,15,03,19,19.40
2012,08,15,03,20,19.40
2012,08,15,03,21,19.40
2012,08,15,03,22,19.40
2012,08,15,03,23,19.40
2012,08,15,03,24,19.40
2012,08,15,03,25,19.40
2012,08,15,03,26,19.40
2012,08,15,03,27,19.40
2012,08,15,03,28,19.40
2012,08,15,03,29,19.40
2012,08,15,03,30,19.40
2012,08,15,03,31,19.30
2012,08,15,03,32,19.40
2012,08,15,03,33,19.40
2012,08,15,03,34,19.40
2012,08,15,03,35,19.40
2012,08,15,03,36,19.40
2012,08,15,03,37,19.40
2012,08,15,03,38,19.40
2012,08,15,03,39,19.40
2012,08,15,03,40,19.40
2012,08,15,03,41,19.40
2012,08,15,03,42,19.40
2012,08,15,03,43,19.40
2012,08,15,03,44,19.30
2012,08,15,03,45,19.30
2012,08,15,03,46,19.30
2012,08,15,03,47,19.30
2012,08,15,03,48,19.30
2012,08,15,03,49,19.30
2012,08,15,03,50,19.30
2012,08,15,03,51,19.30
2012,08,15,03,52,19.30
2012,08,15,03,53,19.30
2012,08,15,03,54,19.30
2012,08,15,03,55,19.30
2012,08,15,03,56,19.30
2012,08,15,03,57,19.30
2012,08,15,03,58,19.30
2012,08,15,03,59,19.30
2012,08,15,04,00,19.30
2012,08,15,04,01,19.30
2012,08,15,04,02,19.30
2012,08,15,04,03,19.30
2012,08,15,04,04,19.30
2012,08,15,04,05,19.30
2012,08,15,04,06,19.30
2012,08,15,04,07,19.30
2012,08,15,04,08,19.30
2012,08,15,04,09,19.30
2012,08,15,04,10,19.30
2012,08,15,04,11,19.30
2012,08,15,04,12,19.30
2012,08,15,04,13,19.30
2012,08,15,04,14,19.30
2012,08,15,04,15,19.20
2012,08,15,04,16,19.30
2012,08,15,04,17,19.20
2012,08,15,04,18,19.20
2012,08,15,04,19,19.20
2012,08,15,04,20,19.20
2012,08,15,04,21,19.20
2012,08,15,04,22,19.20
2012,08,15,04,23,19.20
2012,08,15,04,24,19.20
2012,08,15,04,25,19.20
2012,08,15,04,26,19.20
2012,08,15,04,27,19.20
2012,08,15,04,28,19.20
2012,08,15,04,29,19.20
2012,08,15,04,30,19.20
2012,08,15,04,31,19.20
2012,08,15,04,32,19.20
2012,08,15,04,33,19.10
2012,08,15,04,34,19.10
2012,08,15,04,35,19.10
2012,08,15,04,36,19.10
2012,08,15,04,37,19.10
2012,08,15,04,38,19.10
2012,08,15,04,39,19.20
2012,08,15,04,40,19.20
2012,08,15,04,41,19.20
2012,08,15,04,42,19.20
2012,08,15,04,43,19.20
2012,08,15,04,44,19.20
2012,08,15,04,45,19.20
2012,08,15,04,46,19.20
2012,08,15,04,47,19.20
2012,08,15,04,48,19.20
2012,08,15,04,49,19.20
2012,08,15,04,50,19.20
2012,08,15,04,51,19.20
2012,08,15,04,52,19.20
2012,08,15,04,53,19.20
2012,08,15,04,54,19.20
2012,08,15,04,55,19.20
2012,08,15,04,56,19.20
2012,08,15,04,57,19.20
2012,08,15,04,58,19.20
2012,08,15,04,59,19.20
2012,08,15,05,00,19.20
2012,08,15,05,01,19.20
2012,08,15,05,02,19.20
2012,08,15,05,03,19.20
2012,08,15,05,04,19.20
2012,08,15,05,05,19.30
2012,08,15,05,06,19.30
2012,08,15,05,07,19.30
2012,08,15,05,08,19.30
2012,08,15,05,09,19.30
2012,08,15,05,10,19.30
2012,08,15,05,11,19.30
2012,08,15,05,12,19.30
2012,08,15,05,13,19.40
2012,08,15,05,14,19.40
2012,08,15,05,15,19.40
2012,08,15,05,16,19.40
2012,08,15,05,17,19.40
2012,08,15,05,18,19.40
2012,08,15,05,19,19.40
2012,08,15,05,20,19.50
2012,08,15,05,21,19.50
2012,08,15,05,22,19.50
2012,08,15,05,23,19.50
2012,08,15,05,24,19.50
2012,08,15,05,25,19.50
2012,08,15,05,26,19.50
2012,08,15,05,27,19.50
2012,08,15,05,28,19.50
2012,08,15,05,29,19.50
2012,08,15,05,30,19.50
2012,08,15,05,31,19.50
2012,08,15,05,32,19.50
2012,08,15,05,33,19.50
2012,08,15,05,34,19.40
2012,08,15,05,35,19.40
2012,08,15,05,36,19.40
2012,08,15,05,37,19.40
2012,08,15,05,38,19.40
2012,08,15,05,39,19.40
2012,08,15,05,40,19.40
2012,08,15,05,41,19.40
2012,08,15,05,42,19.40
2012,08,15,05,43,19.40
2012,08,15,05,44,19.40
2012,08,15,05,45,19.40
2012,08,15,05,46,19.40
2012,08,15,05,47,19.40
2012,08,15,05,48,19.40
2012,08,15,05,49,19.40
2012,08,15,05,50,19.40
2012,08,15,05,51,19.40
2012,08,15,05,52,19.50
2012,08,15,05,53,19.50
2012,08,15,05,54,19.60
2012,08,15,05,55,19.60
2012,08,15,05,56,19.60
2012,08,15,05,57,19.60
2012,08,15,05,58,19.60
2012,08,15,05,59,19.60
2012,08,15,06,00,19.60
2012,08,15,06,01,19.60
2012,08,15,06,02,19.60
2012,08,15,06,03,19.70
2012,08,15,06,04,19.70
2012,08,15,06,05,19.70
2012,08,15,06,06,19.70
2012,08,15,06,07,19.70
2012,08,15,06,08,19.60
2012,08,15,06,09,19.60
2012,08,15,06,10,19.60
2012,08,15,06,11,19.60
2012,08,15,06,12,19.60
2012,08,15,06,13,19.60
2012,08,15,06,14,19.60
2012,08,15,06,15,19.60
2012,08,15,06,16,19.60
2012,08,15,06,17,19.60
2012,08,15,06,18,19.60
2012,08,15,06,19,19.60
2012,08,15,06,20,19.60
2012,08,15,06,21,19.60
2012,08,15,06,22,19.60
2012,08,15,06,23,19.60
2012,08,15,06,24,19.60
2012,08,15,06,25,19.70
2012,08,15,06,26,19.70
2012,08,15,06,27,19.70
2012,08,15,06,28,19.70
2012,08,15,06,29,19.70
2012,08,15,06,30,19.70
2012,08,15,06,31,19.70
2012,08,15,06,32,19.70
2012,08,15,06,33,19.70
2012,08,15,06,34,19.70
2012,08,15,06,35,19.70
2012,08,15,06,36,19.70
2012,08,15,06,37,19.70
2012,08,15,06,38,19.80
2012,08,15,06,39,19.80
2012,08,15,06,40,19.80
2012,08,15,06,41,19.80
2012,08,15,06,42,19.80
2012,08,15,06,43,19.80
2012,08,15,06,44,19.80
2012,08,15,06,45,19.80
2012,08,15,06,46,19.80
2012,08,15,06,47,19.80
2012,08,15,06,48,19.80
2012,08,15,06,49,19.80
2012,08,15,06,50,19.80
2012,08,15,06,51,19.80
2012,08,15,06,52,19.80
2012,08,15,06,53,19.80
2012,08,15,06,54,19.80
2012,08,15,06,55,19.80
2012,08,15,06,56,19.80
2012,08,15,06,57,19.80
2012,08,15,06,58,19.80
2012,08,15,06,59,19.80
2012,08,15,07,00,19.80
2012,08,15,07,01,19.80
2012,08,15,07,02,19.80
2012,08,15,07,03,19.80
2012,08,15,07,04,19.80
2012,08,15,07,05,19.90
2012,08,15,07,06,19.90
2012,08,15,07,07,19.90
2012,08,15,07,08,19.90
2012,08,15,07,09,19.90
2012,08,15,07,10,19.90
2012,08,15,07,11,19.90
2012,08,15,07,12,19.90
2012,08,15,07,13,19.90
2012,08,15,07,14,19.90
2012,08,15,07,15,20.00
2012,08,15,07,16,20.00
2012,08,15,07,17,20.00
2012,08,15,07,18,20.00
2012,08,15,07,19,20.00
2012,08,15,07,20,20.00
2012,08,15,07,21,20.00
2012,08,15,07,22,20.10
2012,08,15,07,23,20.10
2012,08,15,07,24,20.10
2012,08,15,07,25,20.10
2012,08,15,07,26,20.10
2012,08,15,07,27,20.10
2012,08,15,07,28,20.10
2012,08,15,07,29,20.10
2012,08,15,07,30,20.10
2012,08,15,07,31,20.10
2012,08,15,07,32,20.10
2012,08,15,07,33,20.20
2012,08,15,07,34,20.20
2012,08,15,07,35,20.20
2012,08,15,07,36,20.20
2012,08,15,07,37,20.20
2012,08,15,07,38,20.20
2012,08,15,07,39,20.20
2012,08,15,07,40,20.30
2012,08,15,07,41,20.30
2012,08,15,07,42,20.30
2012,08,15,07,43,20.30
2012,08,15,07,44,20.40
2012,08,15,07,45,20.40
2012,08,15,07,46,20.40
2012,08,15,07,47,20.40
2012,08,15,07,48,20.50
2012,08,15,07,49,20.50
2012,08,15,07,50,20.50
2012,08,15,07,51,20.60
2012,08,15,07,52,20.60
2012,08,15,07,53,20.60
2012,08,15,07,54,20.60
2012,08,15,07,55,20.70
2012,08,15,07,56,20.70
2012,08,15,07,57,20.70
2012,08,15,07,58,20.70
2012,08,15,07,59,20.80
2012,08,15,08,00,20.80
2012,08,15,08,01,20.80
2012,08,15,08,02,20.80
2012,08,15,08,03,20.80
2012,08,15,08,04,20.90
2012,08,15,08,05,20.90
2012,08,15,08,06,20.90
2012,08,15,08,07,20.90
2012,08,15,08,08,20.90
2012,08,15,08,09,21.00
2012,08,15,08,10,21.00
2012,08,15,08,11,21.00
2012,08,15,08,12,21.10
2012,08,15,08,13,21.10
2012,08,15,08,14,21.10
2012,08,15,08,15,21.20
2012,08,15,08,16,21.20
2012,08,15,08,17,21.20
2012,08,15,08,18,21.30
2012,08,15,08,19,21.30
2012,08,15,08,20,21.40
2012,08,15,08,21,21.40
2012,08,15,08,22,21.50
2012,08,15,08,23,21.50
2012,08,15,08,24,21.50
2012,08,15,08,25,21.60
2012,08,15,08,26,21.60
2012,08,15,08,27,21.60
2012,08,15,08,28,21.60
2012,08,15,08,29,21.60
2012,08,15,08,30,21.70
2012,08,15,08,31,21.70
2012,08,15,08,32,21.70
2012,08,15,08,33,21.70
2012,08,15,08,34,21.70
2012,08,15,08,35,21.70
2012,08,15,08,36,21.70
2012,08,15,08,37,21.70
2012,08,15,08,38,21.70
2012,08,15,08,39,21.70
2012,08,15,08,40,21.70
2012,08,15,08,41,21.60
2012,08,15,08,42,21.60
2012,08,15,08,43,21.60
2012,08,15,08,44,21.60
2012,08,15,08,45,21.60
2012,08,15,08,46,21.60
2012,08,15,08,47,21.60
2012,08,15,08,48,21.60
2012,08,15,08,49,21.60
2012,08,15,08,50,21.60
2012,08,15,08,51,21.60
2012,08,15,08,52,21.60
2012,08,15,08,53,21.60
2012,08,15,08,54,21.60
2012,08,15,08,55,21.60
2012,08,15,08,56,21.60
2012,08,15,08,57,21.60
2012,08,15,08,58,21.60
2012,08,15,08,59,21.60
2012,08,15,09,00,21.60
2012,08,15,09,01,21.70
2012,08,15,09,02,21.70
2012,08,15,09,03,21.70
2012,08,15,09,04,21.70
2012,08,15,09,05,21.70
2012,08,15,09,06,21.70
2012,08,15,09,07,21.80
2012,08,15,09,08,21.80
2012,08,15,09,09,21.80
2012,08,15,09,10,21.90
2012,08,15,09,11,21.90
2012,08,15,09,12,21.90
2012,08,15,09,13,22.00
2012,08,15,09,14,22.00
2012,08,15,09,15,22.10
2012,08,15,09,16,22.10
2012,08,15,09,17,22.10
2012,08,15,09,18,22.10
2012,08,15,09,19,22.10
2012,08,15,09,20,22.20
2012,08,15,09,21,22.10
2012,08,15,09,22,22.10
2012,08,15,09,23,22.10
2012,08,15,09,24,22.10
2012,08,15,09,25,22.10
2012,08,15,09,26,22.10
2012,08,15,09,27,22.10
2012,08,15,09,28,22.10
2012,08,15,09,29,22.10
2012,08,15,09,30,22.10
2012,08,15,09,31,22.10
2012,08,15,09,32,22.10
2012,08,15,09,33,22.10
2012,08,15,09,34,22.10
2012,08,15,09,35,22.10
2012,08,15,09,36,22.10
2012,08,15,09,37,22.10
2012,08,15,09,38,22.10
2012,08,15,09,39,22.10
2012,08,15,09,40,22.20
2012,08,15,09,41,22.20
2012,08,15,09,42,22.30
2012,08,15,09,43,22.30
2012,08,15,09,44,22.30
2012,08,15,09,45,22.40
2012,08,15,09,46,22.40
2012,08,15,09,47,22.50
2012,08,15,09,48,22.50
2012,08,15,09,49,22.60
2012,08,15,09,50,22.60
2012,08,15,09,51,22.60
2012,08,15,09,52,22.60
2012,08,15,09,53,22.60
2012,08,15,09,54,22.60
2012,08,15,09,55,22.60
2012,08,15,09,56,22.60
2012,08,15,09,57,22.60
2012,08,15,09,58,22.60
2012,08,15,09,59,22.60
2012,08,15,10,00,22.70
2012,08,15,10,01,22.70
2012,08,15,10,02,22.70
2012,08,15,10,03,22.70
2012,08,15,10,04,22.70
2012,08,15,10,05,22.70
2012,08,15,10,06,22.60
2012,08,15,10,07,22.60
2012,08,15,10,08,22.60
2012,08,15,10,09,22.60
2012,08,15,10,10,22.60
2012,08,15,10,11,22.60
2012,08,15,10,12,22.60
2012,08,15,10,13,22.60
2012,08,15,10,14,22.60
2012,08,15,10,15,22.50
2012,08,15,10,16,22.50
2012,08,15,10,17,22.50
2012,08,15,10,18,22.50
2012,08,15,10,19,22.60
2012,08,15,10,20,22.60
2012,08,15,10,21,22.60
2012,08,15,10,22,22.60
2012,08,15,10,23,22.60
2012,08,15,10,24,22.50
2012,08,15,10,25,22.50
2012,08,15,10,26,22.40
2012,08,15,10,27,22.50
2012,08,15,10,28,22.50
2012,08,15,10,29,22.60
2012,08,15,10,30,22.60
2012,08,15,10,31,22.70
2012,08,15,10,32,22.70
2012,08,15,10,33,22.80
2012,08,15,10,34,22.80
2012,08,15,10,35,22.90
2012,08,15,10,36,23.00
2012,08,15,10,37,23.20
2012,08,15,10,38,23.30
2012,08,15,10,39,23.40
2012,08,15,10,40,23.50
2012,08,15,10,41,23.50
2012,08,15,10,42,23.60
2012,08,15,10,43,23.70
2012,08,15,10,44,23.60
2012,08,15,10,45,23.60
2012,08,15,10,46,23.60
2012,08,15,10,47,23.60
2012,08,15,10,48,23.60
2012,08,15,10,49,23.60
2012,08,15,10,50,23.50
2012,08,15,10,51,23.50
2012,08,15,10,52,23.40
2012,08,15,10,53,23.40
2012,08,15,10,54,23.40
2012,08,15,10,55,23.40
2012,08,15,10,56,23.40
2012,08,15,10,57,23.40
2012,08,15,10,58,23.40
2012,08,15,10,59,23.40
2012,08,15,11,00,23.40
2012,08,15,11,01,23.40
2012,08,15,11,02,23.50
2012,08,15,11,03,23.60
2012,08,15,11,04,23.70
2012,08,15,11,05,23.80
2012,08,15,11,06,24.00
2012,08,15,11,07,24.10
2012,08,15,11,08,24.10
2012,08,15,11,09,24.20
2012,08,15,11,10,24.30
2012,08,15,11,11,24.30
2012,08,15,11,12,24.30
2012,08,15,11,13,24.20
2012,08,15,11,14,24.10
2012,08,15,11,15,24.10
2012,08,15,11,16,24.10
2012,08,15,11,17,24.10
2012,08,15,11,18,24.10
2012,08,15,11,19,24.10
2012,08,15,11,20,24.20
2012,08,15,11,21,24.20
2012,08,15,11,22,24.20
2012,08,15,11,23,24.20
2012,08,15,11,24,24.20
2012,08,15,11,25,24.20
2012,08,15,11,26,24.20
2012,08,15,11,27,24.20
2012,08,15,11,28,24.30
2012,08,15,11,29,24.30
2012,08,15,11,30,24.30
2012,08,15,11,31,24.30
2012,08,15,11,32,24.30
2012,08,15,11,33,24.30
2012,08,15,11,34,24.30
2012,08,15,11,35,24.30
2012,08,15,11,36,24.30
2012,08,15,11,37,24.30
2012,08,15,11,38,24.30
2012,08,15,11,39,24.30
2012,08,15,11,40,24.40
2012,08,15,11,41,24.40
2012,08,15,11,42,24.40
2012,08,15,11,43,24.50
2012,08,15,11,44,24.60
2012,08,15,11,45,24.60
2012,08,15,11,46,24.60
2012,08,15,11,47,24.60
2012,08,15,11,48,24.60
2012,08,15,11,49,24.60
2012,08,15,11,50,24.60
2012,08,15,11,51,24.60
2012,08,15,11,52,24.60
2012,08,15,11,53,24.60
2012,08,15,11,54,24.60
2012,08,15,11,55,24.60
2012,08,15,11,56,24.60
2012,08,15,11,57,24.60
2012,08,15,11,58,24.60
2012,08,15,11,59,24.60
2012,08,15,12,00,24.60
2012,08,15,12,01,24.70
2012,08,15,12,02,24.70
2012,08,15,12,03,24.60
2012,08,15,12,04,24.60
2012,08,15,12,05,24.60
2012,08,15,12,06,24.60
2012,08,15,12,07,24.60
2012,08,15,12,08,24.70
2012,08,15,12,09,24.70
2012,08,15,12,10,24.80
2012,08,15,12,11,24.90
2012,08,15,12,12,25.00
2012,08,15,12,13,25.10
2012,08,15,12,14,25.10
2012,08,15,12,15,25.10
2012,08,15,12,16,25.10
2012,08,15,12,17,25.20
2012,08,15,12,18,25.20
2012,08,15,12,19,25.10
2012,08,15,12,20,25.00
2012,08,15,12,21,24.90
2012,08,15,12,22,24.90
2012,08,15,12,23,24.80
2012,08,15,12,24,24.80
2012,08,15,12,25,24.90
2012,08,15,12,26,24.90
2012,08,15,12,27,25.00
2012,08,15,12,28,25.10
2012,08,15,12,29,25.10
2012,08,15,12,30,25.10
2012,08,15,12,31,25.30
2012,08,15,12,32,25.30
2012,08,15,12,33,25.30
2012,08,15,12,34,25.40
2012,08,15,12,35,25.50
2012,08,15,12,36,25.60
2012,08,15,12,37,25.70
2012,08,15,12,38,25.80
2012,08,15,12,39,25.90
2012,08,15,12,40,26.00
2012,08,15,12,41,26.10
2012,08,15,12,42,26.20
2012,08,15,12,43,26.30
2012,08,15,12,44,26.30
2012,08,15,12,45,26.20
2012,08,15,12,46,26.20
2012,08,15,12,47,26.20
2012,08,15,12,48,26.20
2012,08,15,12,49,26.20
2012,08,15,12,50,26.10
2012,08,15,12,51,26.10
2012,08,15,12,52,26.10
2012,08,15,12,53,26.00
2012,08,15,12,54,26.00
2012,08,15,12,55,26.00
2012,08,15,12,56,26.00
2012,08,15,12,57,26.10
2012,08,15,12,58,26.10
2012,08,15,12,59,26.10
2012,08,15,13,00,26.20
2012,08,15,13,01,26.20
2012,08,15,13,02,26.20
2012,08,15,13,03,26.20
2012,08,15,13,04,26.20
2012,08,15,13,05,26.10
2012,08,15,13,06,26.20
2012,08,15,13,07,26.20
2012,08,15,13,08,26.20
2012,08,15,13,09,26.20
2012,08,15,13,10,26.20
2012,08,15,13,11,26.20
2012,08,15,13,12,26.30
2012,08,15,13,13,26.30
2012,08,15,13,14,26.40
2012,08,15,13,15,26.40
2012,08,15,13,16,26.40
2012,08,15,13,17,26.40
2012,08,15,13,18,26.40
2012,08,15,13,19,26.40
2012,08,15,13,20,26.50
2012,08,15,13,21,26.50
2012,08,15,13,22,26.50
2012,08,15,13,23,26.60
2012,08,15,13,24,26.60
2012,08,15,13,25,26.60
2012,08,15,13,26,26.60
2012,08,15,13,27,26.60
2012,08,15,13,28,26.60
2012,08,15,13,29,26.70
2012,08,15,13,30,26.70
2012,08,15,13,31,26.70
2012,08,15,13,32,26.80
2012,08,15,13,33,26.80
2012,08,15,13,34,26.90
2012,08,15,13,35,26.90
2012,08,15,13,36,27.00
2012,08,15,13,37,27.00
2012,08,15,13,38,27.10
2012,08,15,13,39,27.10
2012,08,15,13,40,27.10
2012,08,15,13,41,27.00
2012,08,15,13,42,27.00
2012,08,15,13,43,26.90
2012,08,15,13,44,26.90
2012,08,15,13,45,26.80
2012,08,15,13,46,26.80
2012,08,15,13,47,26.90
2012,08,15,13,48,27.00
2012,08,15,13,49,27.10
2012,08,15,13,50,27.10
2012,08,15,13,51,27.20
2012,08,15,13,52,27.40
2012,08,15,13,53,27.50
2012,08,15,13,54,27.50
2012,08,15,13,55,27.50
2012,08,15,13,56,27.50
2012,08,15,13,57,27.50
2012,08,15,13,58,27.60
2012,08,15,13,59,27.60
2012,08,15,14,00,27.50
2012,08,15,14,01,27.50
2012,08,15,14,02,27.50
2012,08,15,14,03,27.50
2012,08,15,14,04,27.40
2012,08,15,14,05,27.40
2012,08,15,14,06,27.40
2012,08,15,14,07,27.50
2012,08,15,14,08,27.60
2012,08,15,14,09,27.50
2012,08,15,14,10,27.50
2012,08,15,14,11,27.50
2012,08,15,14,12,27.40
2012,08,15,14,13,27.40
2012,08,15,14,14,27.40
2012,08,15,14,15,27.50
2012,08,15,14,16,27.60
2012,08,15,14,17,27.60
2012,08,15,14,18,27.60
2012,08,15,14,19,27.70
2012,08,15,14,20,27.80
2012,08,15,14,21,27.80
2012,08,15,14,22,27.90
2012,08,15,14,23,27.90
2012,08,15,14,24,27.90
2012,08,15,14,25,27.90
2012,08,15,14,26,27.80
2012,08,15,14,27,27.80
2012,08,15,14,28,27.80
2012,08,15,14,29,27.80
2012,08,15,14,30,27.80
2012,08,15,14,31,27.70
2012,08,15,14,32,27.70
2012,08,15,14,33,27.70
2012,08,15,14,34,27.70
2012,08,15,14,35,27.70
2012,08,15,14,36,27.70
2012,08,15,14,37,27.70
2012,08,15,14,38,27.70
2012,08,15,14,39,27.70
2012,08,15,14,40,27.70
2012,08,15,14,41,27.70
2012,08,15,14,42,27.80
2012,08,15,14,43,27.80
2012,08,15,14,44,27.80
2012,08,15,14,45,27.80
2012,08,15,14,46,27.80
2012,08,15,14,47,27.80
2012,08,15,14,48,27.90
2012,08,15,14,49,27.80
2012,08,15,14,50,27.80
2012,08,15,14,51,27.80
2012,08,15,14,52,27.80
2012,08,15,14,53,27.80
2012,08,15,14,54,27.80
2012,08,15,14,55,27.80
2012,08,15,14,56,27.80
2012,08,15,14,57,27.90
2012,08,15,14,58,27.90
2012,08,15,14,59,27.90
2012,08,15,15,00,27.90
2012,08,15,15,01,28.00
2012,08,15,15,02,28.00
2012,08,15,15,03,28.00
2012,08,15,15,04,28.00
2012,08,15,15,05,28.00
2012,08,15,15,06,27.90
2012,08,15,15,07,27.80
2012,08,15,15,08,27.70
2012,08,15,15,09,27.70
2012,08,15,15,10,27.70
2012,08,15,15,11,27.60
2012,08,15,15,12,27.60
2012,08,15,15,13,27.50
2012,08,15,15,14,27.50
2012,08,15,15,15,27.50
2012,08,15,15,16,27.50
2012,08,15,15,17,27.50
2012,08,15,15,18,27.50
2012,08,15,15,19,27.50
2012,08,15,15,20,27.50
2012,08,15,15,21,27.40
2012,08,15,15,22,27.40
2012,08,15,15,23,27.40
2012,08,15,15,24,27.50
2012,08,15,15,25,27.50
2012,08,15,15,26,27.50
2012,08,15,15,27,27.60
2012,08,15,15,28,27.70
2012,08,15,15,29,27.70
2012,08,15,15,30,27.70
2012,08,15,15,31,27.80
2012,08,15,15,32,27.80
2012,08,15,15,33,27.80
2012,08,15,15,34,27.80
2012,08,15,15,35,27.80
2012,08,15,15,36,27.80
2012,08,15,15,37,27.80
2012,08,15,15,38,27.80
2012,08,15,15,39,27.80
2012,08,15,15,40,27.80
2012,08,15,15,41,27.80
2012,08,15,15,42,27.80
2012,08,15,15,43,27.90
2012,08,15,15,44,28.00
2012,08,15,15,45,27.90
2012,08,15,15,46,27.90
2012,08,15,15,47,27.90
2012,08,15,15,48,27.90
2012,08,15,15,49,27.90
2012,08,15,15,50,27.90
2012,08,15,15,51,27.90
2012,08,15,15,52,27.90
2012,08,15,15,53,28.00
2012,08,15,15,54,28.00
2012,08,15,15,55,28.10
2012,08,15,15,56,28.10
2012,08,15,15,57,28.20
2012,08,15,15,58,28.20
2012,08,15,15,59,28.20
2012,08,15,16,00,28.20
2012,08,15,16,01,28.30
2012,08,15,16,02,28.30
2012,08,15,16,03,28.30
2012,08,15,16,04,28.30
2012,08,15,16,05,28.30
2012,08,15,16,06,28.30
2012,08,15,16,07,28.30
2012,08,15,16,08,28.30
2012,08,15,16,09,28.30
2012,08,15,16,10,28.30
2012,08,15,16,11,28.30
2012,08,15,16,12,28.30
2012,08,15,16,13,28.30
2012,08,15,16,14,28.30
2012,08,15,16,15,28.40
2012,08,15,16,16,28.40
2012,08,15,16,17,28.40
2012,08,15,16,18,28.40
2012,08,15,16,19,28.50
2012,08,15,16,20,28.50
2012,08,15,16,21,28.50
2012,08,15,16,22,28.50
2012,08,15,16,23,28.40
2012,08,15,16,24,28.40
2012,08,15,16,25,28.30
2012,08,15,16,26,28.30
2012,08,15,16,27,28.30
2012,08,15,16,28,28.30
2012,08,15,16,29,28.20
2012,08,15,16,30,28.20
2012,08,15,16,31,28.20
2012,08,15,16,32,28.20
2012,08,15,16,33,28.30
2012,08,15,16,34,28.30
2012,08,15,16,35,28.30
2012,08,15,16,36,28.30
2012,08,15,16,37,28.30
2012,08,15,16,38,28.40
2012,08,15,16,39,28.40
2012,08,15,16,40,28.40
2012,08,15,16,41,28.40
2012,08,15,16,42,28.40
2012,08,15,16,43,28.40
2012,08,15,16,44,28.40
2012,08,15,16,45,28.40
2012,08,15,16,46,28.40
2012,08,15,16,47,28.40
2012,08,15,16,48,28.50
2012,08,15,16,49,28.50
2012,08,15,16,50,28.60
2012,08,15,16,51,28.60
2012,08,15,16,52,28.60
2012,08,15,16,53,28.60
2012,08,15,16,54,28.70
2012,08,15,16,55,28.70
2012,08,15,16,56,28.80
2012,08,15,16,57,28.80
2012,08,15,16,58,28.80
2012,08,15,16,59,28.70
2012,08,15,17,00,28.70
2012,08,15,17,01,28.70
2012,08,15,17,02,28.70
2012,08,15,17,03,28.70
2012,08,15,17,04,28.70
2012,08,15,17,05,28.60
2012,08,15,17,06,28.50
2012,08,15,17,07,28.50
2012,08,15,17,08,28.40
2012,08,15,17,09,28.40
2012,08,15,17,10,28.40
2012,08,15,17,11,28.40
2012,08,15,17,12,28.30
2012,08,15,17,13,28.30
2012,08,15,17,14,28.30
2012,08,15,17,15,28.30
2012,08,15,17,16,28.30
2012,08,15,17,17,28.30
2012,08,15,17,18,28.30
2012,08,15,17,19,28.30
2012,08,15,17,20,28.30
2012,08,15,17,21,28.30
2012,08,15,17,22,28.30